OBJECT J, 61902

Orbit data source: Space-Track

You're viewing an Uncataloged Satellite

Recently launched and/or uncataloged satellites may have evolving metadata. Metadata may include but not limited to: Owner, Maufacturer, Bus, Motor, and Mission.

OBJECT J, 61902 is a satellite owned by Yunyao yuhang (CN) in SSO that was launched on Mon, 11 Nov 2024 UTC via a LIJIAN-1 launch vehicle from the Jiuquan Satellite Launch Center, China (JSC). Unknown objects in Earth's orbit typically refer to objects detected orbiting the Earth but have not yet been identified or cataloged. These objects could be anything from previously untracked satellites, spent rocket stages, debris from satellite collisions, or even natural meteoroids temporarily captured by Earth's gravity.

Loading next visibility...
Identifier
61902, 2024-205J
Orbit
SSO
Country
Flag of CNCN / PRC
Related business
None
Manufacturer
Changguang WJ
Mission
Operational Commercial Weather
Bus & Motor
YY-1, Unknown motor
Mass
~50 kg wet, ~50 kg dry
Launch date (UTC)
2024-11-11 (10 months ago)
Launch vehicle
LIJIAN-1
Launch site
Jiuquan Satellite Launch Center, China (JSC)
Object type
Unknown
Shape & HBR
Box + 1 Pan, 2.5 m
Radar Cross Section
5.339 m², Medium (>0.1 m² and < 1m²)

Expand to show TLE details & history
Last TLE update: 9 hours ago

TLE from 9 hours ago
0 OBJECT J
1 61902U 24205J   25259.64005705  .00010563  00000-0  54446-3 0  9992
2 61902  97.4458 331.5823 0027930 269.7438  90.0595 15.16212516 46796
Epoch: 2025-09-16T15:21Z
TLE epoch observation values (Epoch: 2025-09-16T15:21:40.929Z)
Latitude
0.00005°
Longitude
105.3343°
Altitude
520.458 km
Speed
7.603 km/s
True Right ascension
22h 06m 19s
True Declination
0° 00' 00"
Sunlit
Object was in full shadow at epoch
Visualization orbit readout
Latitude
Unknown
Longitude
Unknown
Altitude
Unknown
Speed
Unknown
Apparent Right ascension
Unknown
Apparent Declination
Unknown
Sunlit
N/A
Visualization observer readout
Local Sidereal Time
16:39:56
Azimuth
Unknown
Elevation
Unknown
Doppler factor
Unknown
Orbital elements
Apogee altitude
533.523 km
Perigee altitude
495.022 km
Semi-major axis
6,892.409 km
Eccentricity
0.00279
Inclination
97.4458°
RAAN
331.5823°
Arg. of periapsis
269.7438°
True anomaly
90.37955°
Mean anomaly
90.0595°
Eccentric anomaly
90.21953°
Mean motion
3.79303 °/min
Orbital period
94.91 mins
BSTAR
0.00054446
Loading maneuver chart data...
Computing Atmospheric mass density...
Loading historical data...
Loading historical data...
Loading historical data...
Loading historical data...
Loading historical data...
Loading historical data...
Loading historical data...

Documentation

Showing up to 5 results
|